TimeEDT,TemperatureF,Dew PointF,Humidity,Sea Level PressureIn,VisibilityMPH,Wind Direction,Wind SpeedMPH,Gust SpeedMPH,PrecipitationIn,Events,Conditions,WindDirDegrees,DateUTC
12:53 AM,51.1,39.9,66,29.96,10.0,West,10.4,17.3,N/A,,Overcast,280,2013-10-08 04:53:00
1:53 AM,50.0,39.9,68,30.01,10.0,West,9.2,-,N/A,,Overcast,270,2013-10-08 05:53:00
2:53 AM,48.0,39.9,74,30.04,10.0,West,6.9,-,N/A,,Scattered Clouds,280,2013-10-08 06:53:00
3:53 AM,46.9,39.0,74,30.08,10.0,West,9.2,-,N/A,,Mostly Cloudy,260,2013-10-08 07:53:00
4:53 AM,46.0,37.0,71,30.12,10.0,West,8.1,-,N/A,,Partly Cloudy,260,2013-10-08 08:53:00
5:53 AM,43.0,37.9,82,30.16,10.0,SW,8.1,-,N/A,,Partly Cloudy,230,2013-10-08 09:53:00
6:53 AM,41.0,37.0,86,30.19,10.0,SW,5.8,-,N/A,,Clear,230,2013-10-08 10:53:00
7:53 AM,42.1,37.9,85,30.22,10.0,SSW,3.5,-,N/A,,Clear,210,2013-10-08 11:53:00
8:53 AM,46.9,39.9,77,30.26,10.0,WSW,6.9,-,N/A,,Clear,240,2013-10-08 12:53:00
9:53 AM,51.1,39.9,66,30.28,10.0,West,6.9,-,N/A,,Clear,260,2013-10-08 13:53:00
10:53 AM,51.1,39.9,66,30.30,10.0,SW,4.6,-,N/A,,Mostly Cloudy,230,2013-10-08 14:53:00
11:07 AM,51.8,37.4,58,30.29,10.0,WSW,8.1,-,N/A,,Scattered Clouds,240,2013-10-08 15:07:00
11:53 AM,53.1,39.9,61,30.31,10.0,SW,9.2,-,N/A,,Clear,220,2013-10-08 15:53:00
12:53 PM,55.9,39.9,55,30.31,10.0,WSW,6.9,-,N/A,,Clear,250,2013-10-08 16:53:00
1:53 PM,57.0,36.0,45,30.30,10.0,WNW,6.9,-,N/A,,Clear,290,2013-10-08 17:53:00
2:53 PM,57.9,37.9,47,30.31,10.0,West,9.2,-,N/A,,Clear,270,2013-10-08 18:53:00
3:53 PM,57.9,37.0,46,30.32,10.0,West,6.9,-,N/A,,Clear,260,2013-10-08 19:53:00
4:53 PM,57.9,37.0,46,30.32,10.0,SW,9.2,-,N/A,,Clear,230,2013-10-08 20:53:00
5:53 PM,55.0,37.9,53,30.34,10.0,SW,6.9,-,N/A,,Clear,230,2013-10-08 21:53:00
6:53 PM,51.1,39.0,63,30.35,10.0,Calm,Calm,-,N/A,,Clear,0,2013-10-08 22:53:00
7:53 PM,45.0,37.9,76,30.37,10.0,Calm,Calm,-,N/A,,Clear,0,2013-10-08 23:53:00
8:53 PM,42.1,37.9,85,30.38,10.0,Calm,Calm,-,N/A,,Clear,0,2013-10-09 00:53:00
9:53 PM,39.9,37.0,89,30.38,10.0,Calm,Calm,-,N/A,,Clear,0,2013-10-09 01:53:00
10:53 PM,39.0,36.0,89,30.38,10.0,Calm,Calm,-,N/A,,Clear,0,2013-10-09 02:53:00
11:11 PM,39.2,35.6,87,30.37,1.5,Calm,Calm,-,N/A,,Clear,0,2013-10-09 03:11:00
11:21 PM,39.2,35.6,87,30.37,3.0,Calm,Calm,-,N/A,,Clear,0,2013-10-09 03:21:00
11:53 PM,37.9,35.1,89,30.38,10.0,Calm,Calm,-,N/A,,Clear,0,2013-10-09 03:53:00